Location: Apeadero de Los Molinos-Guadarrama
(40.7091°N, 4.0689°W)
Time: 02:01:11
(UTC+00:00)

ISS - Pass Details

Date: 30 September 2021
Orbit: 417 x 423 km, 51.6° (Epoch: 24 October)

Event Time Altitude Azimuth Distance (km) Brightness Sun altitude
Rises 19:01:28 0° 311° (NW) 2,364 1.1 -12.5°
Reaches altitude 10° 19:04:00 10° 330° (NNW) 1,500 -0.4 -13.0°
Maximum altitude 19:06:29 19° 18° (NNE) 1,077 -1.8 -13.4°
Enters shadow 19:07:50 15° 48° (NE) 1,218 -1.8 -13.7°
